Location: Baia Mare
(47.6567°N, 23.5850°E)
Time: 01:37:53
(UTC+03:00)

ISS - Pass Details

Date: 23 July 2018
Orbit: 402 x 408 km, 51.6° (Epoch: 19 July)

Event Time Altitude Azimuth Distance (km) Brightness Sun altitude
Rises 23:47:02 0° 273° (W) 2,321 0.4 -18.4°
Reaches altitude 10° 23:49:11 10° 281° (W) 1,463 -0.5 -18.6°
Maximum altitude 23:52:19 41° 354° (N) 604 -2.5 -18.8°
Drops below altitude 10° 23:55:27 10° 66° (ENE) 1,468 -1.0 -19.0°
Enters shadow 23:56:29 - 71° (ENE) 1,872 -0.5 -19.1°
